"startDT [UTC]","vpos","CH4 [ppm]","stdev(CH4) [ppm]","CO2 [ppm]","stdev(CO2) [ppm]","H2O_reported [%]","stdev(H2O_reported)","CavityPressure [torr]","CavityTemp [C]","OutletValve","CH4_dry [ppm]","CO2_dry [ppm]","DasTemp [C]","EtalonTemp [C]","WarmBoxTemp [C]","MPVPosition","T_ECpre [C]","T_EC1 [C]","T_EC2 [C]","p_inlet [hPa]","p_in [hPa]","p_out [hPa]","T_inlet [C]","RH_inlet [%]","dwpt_inlet [C]","T_vent [C]","RH_vent [%]","dwpt_vent [C]","flow_vent [l min-1]","flow_inlet [l min-1]","dwpt_sample [C]","T_room [C]"
2015-11-07 00:00:00,0.0,1.93501,0.00045,403.972,0.041,0.0950,0.0022,139.998,45.000,31658.26784,1.93684,404.435,33.000,45.070,45.000,0.00,0.09,-272.75,-272.80,-5,520,-952,18.7,3.6,-25.5,18.9,3.6,-25.1,5.73,1.95,-14.6,25.1
2015-11-07 00:01:00,0.0,1.93455,0.00038,403.956,0.024,0.0956,0.0015,139.999,45.000,31658.61362,1.93638,404.420,33.000,45.070,45.000,0.00,0.09,-272.75,-272.81,-5,520,-952,18.7,3.6,-25.4,18.9,3.6,-25.1,5.73,2.07,-14.6,25.1
2015-11-07 00:02:00,0.0,1.93423,0.00042,403.958,0.027,0.0964,0.0014,140.001,45.000,31660.44278,1.93609,404.427,33.000,45.070,45.000,0.00,0.09,-272.75,-272.81,-5,520,-952,18.7,3.6,-25.3,18.9,3.7,-25.1,5.73,2.15,-14.6,25.1
2015-11-07 00:03:00,0.0,1.93488,0.00036,403.948,0.038,0.0978,0.0016,139.997,45.000,31657.85495,1.93671,404.421,32.997,45.070,45.000,0.00,0.09,-272.75,-272.80,-5,520,-952,18.7,3.7,-25.2,18.9,3.7,-24.9,5.73,2.10,-14.6,25.1
2015-11-07 00:04:00,0.0,1.93475,0.00058,403.941,0.034,0.0986,0.0017,139.999,45.000,31661.04914,1.93663,404.422,33.024,45.070,45.000,0.00,0.09,-272.75,-272.81,-4,520,-952,18.7,3.7,-25.1,18.9,3.7,-24.8,5.73,1.97,-14.6,25.1
2015-11-07 00:05:00,0.0,1.93436,0.00046,403.933,0.035,0.0990,0.0018,140.000,45.000,31660.54761,1.93626,404.416,33.062,45.070,45.000,0.00,0.09,-272.75,-272.81,-4,520,-952,18.7,3.7,-25.1,18.9,3.8,-24.8,5.73,1.89,-14.6,25.1
2015-11-07 00:06:00,0.0,1.93445,0.00029,403.925,0.032,0.0996,0.0022,139.998,45.000,31659.36552,1.93636,404.409,33.064,45.070,45.000,0.00,0.09,-272.75,-272.80,-4,520,-952,18.7,3.7,-24.9,18.9,3.8,-24.7,5.73,1.95,-14.6,25.1
2015-11-07 00:07:00,0.0,1.93502,0.00063,403.972,0.042,0.0999,0.0017,140.002,45.000,31660.69735,1.93688,404.458,33.053,45.069,45.000,0.00,0.09,-272.75,-272.80,-5,520,-952,18.7,3.8,-24.9,18.9,3.8,-24.6,5.73,2.08,-14.6,25.1
2015-11-07 00:08:00,0.0,1.93522,0.00053,403.971,0.039,0.0993,0.0016,139.998,45.000,31659.86587,1.93714,404.455,33.016,45.069,45.000,0.00,0.08,-272.76,-272.80,-5,520,-952,18.7,3.7,-24.9,18.9,3.8,-24.6,5.73,2.15,-14.6,25.0
2015-11-07 00:09:00,0.0,1.93530,0.00043,403.934,0.026,0.1000,0.0021,139.998,45.000,31659.01305,1.93720,404.420,33.006,45.069,45.000,0.00,0.09,-272.75,-272.80,-5,520,-952,18.7,3.8,-24.9,18.9,3.8,-24.6,5.73,2.09,-14.6,25.1
2015-11-07 00:10:00,0.0,1.93601,0.00067,403.967,0.036,0.0983,0.0020,140.001,45.000,31660.52971,1.93780,404.445,33.015,45.070,45.000,0.00,0.09,-272.75,-272.81,-5,520,-952,18.7,3.7,-25.0,18.9,3.8,-24.6,5.73,1.96,-14.6,25.1
2015-11-07 00:11:00,0.0,1.93701,0.00039,403.913,0.049,0.0984,0.0018,139.999,45.000,31660.56805,1.93891,404.394,33.057,45.070,45.000,0.00,0.09,-272.76,-272.81,-5,520,-952,18.7,3.7,-25.1,18.9,3.8,-24.8,5.73,1.90,-14.6,25.1
2015-11-07 00:12:00,0.0,1.93661,0.00057,403.839,0.039,0.0992,0.0018,139.999,45.000,31659.88539,1.93854,404.323,33.063,45.069,45.000,0.00,0.09,-272.75,-272.80,-5,520,-952,18.7,3.7,-25.0,18.9,3.8,-24.7,5.73,1.97,-14.6,25.1
2015-11-07 00:13:00,0.0,1.93642,0.00028,403.821,0.035,0.1002,0.0021,139.997,45.000,31659.91713,1.93833,404.306,33.057,45.070,45.000,0.00,0.09,-272.76,-272.80,-4,520,-952,18.7,3.7,-25.0,18.9,3.8,-24.7,5.73,2.10,-14.6,25.1
2015-11-07 00:14:00,0.0,1.93679,0.00042,403.851,0.035,0.0993,0.0014,140.000,45.000,31659.29294,1.93865,404.335,33.034,45.070,45.000,0.00,0.09,-272.76,-272.81,-4,520,-952,18.7,3.8,-24.9,18.9,3.8,-24.6,5.73,2.15,-14.6,25.1
2015-11-07 00:15:00,0.0,1.93666,0.00051,403.845,0.036,0.0989,0.0015,139.998,45.000,31658.63287,1.93858,404.327,33.010,45.070,45.000,0.00,0.09,-272.75,-272.82,-4,520,-952,18.7,3.7,-25.0,18.9,3.8,-24.7,5.73,2.07,-14.6,25.1
2015-11-07 00:16:00,0.0,1.93683,0.00050,403.875,0.036,0.0991,0.0018,139.998,45.000,31657.78024,1.93870,404.355,33.030,45.070,45.000,0.00,0.09,-272.75,-272.80,-5,520,-952,18.7,3.7,-24.9,18.9,3.8,-24.6,5.73,1.95,-14.6,25.1
2015-11-07 00:17:00,0.0,1.93675,0.00035,403.935,0.047,0.1005,0.0014,139.999,45.000,31659.84720,1.93868,404.423,33.056,45.070,45.000,0.00,0.09,-272.74,-272.81,-5,520,-952,18.7,3.8,-24.9,18.9,3.8,-24.6,5.73,1.90,-14.6,25.1
2015-11-07 00:18:00,0.0,1.93698,0.00047,403.957,0.039,0.1005,0.0020,140.001,45.000,31661.63710,1.93883,404.445,33.064,45.070,45.000,0.00,0.09,-272.75,-272.81,-5,520,-952,18.7,3.8,-24.8,18.9,3.8,-24.5,5.73,1.97,-14.6,25.1
2015-11-07 00:19:00,0.0,1.93719,0.00040,404.009,0.047,0.1005,0.0018,140.000,45.000,31661.00673,1.93912,404.498,33.071,45.069,45.000,0.00,0.09,-272.75,-272.80,-5,520,-952,18.7,3.8,-24.9,18.9,3.8,-24.5,5.73,2.11,-14.6,25.2
2015-11-07 00:20:00,0.0,1.93781,0.00033,404.052,0.024,0.0999,0.0019,139.998,45.000,31660.23719,1.93972,404.537,33.068,45.069,45.000,0.00,0.09,-272.74,-272.80,-5,520,-952,18.7,3.8,-24.9,18.9,3.8,-24.6,5.73,2.15,-14.6,25.1
2015-11-07 00:21:00,0.0,1.93769,0.00047,404.104,0.031,0.1001,0.0014,140.002,45.000,31659.10696,1.93958,404.591,33.063,45.069,45.000,0.00,0.09,-272.75,-272.80,-5,520,-952,18.7,3.7,-25.0,18.9,3.8,-24.6,5.73,2.07,-14.6,25.1
2015-11-07 00:22:00,0.0,1.93780,0.00038,404.102,0.027,0.0987,0.0016,139.999,45.000,31657.98004,1.93971,404.581,33.062,45.069,45.000,0.00,0.09,-272.74,-272.81,-4,520,-952,18.7,3.7,-25.1,18.9,3.8,-24.7,5.73,1.94,-14.6,25.1
2015-11-07 00:23:00,0.0,1.93748,0.00038,404.136,0.051,0.0976,0.0013,140.001,45.000,31661.37047,1.93934,404.612,33.062,45.070,45.000,0.00,0.09,-272.74,-272.80,-4,520,-952,18.7,3.7,-25.1,18.9,3.8,-24.8,5.73,1.90,-14.6,25.1
2015-11-07 00:24:00,0.0,1.93795,0.00054,404.170,0.036,0.0989,0.0016,140.000,45.000,31660.08917,1.93984,404.651,33.038,45.070,45.000,0.00,0.09,-272.75,-272.80,-4,520,-952,18.7,3.7,-25.1,18.9,3.8,-24.7,5.73,1.99,-14.6,25.1
2015-11-07 00:25:00,0.0,1.93837,0.00059,404.148,0.032,0.0988,0.0012,139.999,45.000,31660.67352,1.94020,404.630,33.041,45.070,45.000,0.00,0.09,-272.76,-272.80,-5,520,-952,18.7,3.7,-25.1,18.9,3.8,-24.8,5.73,2.11,-14.6,25.1
2015-11-07 00:26:00,0.0,1.93858,0.00050,404.098,0.041,0.0989,0.0017,139.998,45.000,31661.37080,1.94046,404.579,33.004,45.070,45.000,0.00,0.09,-272.75,-272.80,-5,520,-952,18.7,3.7,-25.1,18.9,3.8,-24.8,5.73,2.15,-14.6,25.1
2015-11-07 00:27:00,0.0,1.93851,0.00094,404.075,0.075,0.0982,0.0017,140.000,45.000,31660.80665,1.94044,404.555,33.003,45.070,45.001,0.00,0.09,-272.74,-272.80,-5,520,-952,18.7,3.7,-25.1,18.9,3.8,-24.7,5.73,2.05,-14.6,25.1
2015-11-07 00:28:00,0.0,1.93700,0.00040,403.903,0.039,0.1001,0.0022,139.998,45.000,31659.87253,1.93891,404.390,33.002,45.070,45.000,0.00,0.09,-272.75,-272.82,-5,520,-952,18.7,3.7,-24.9,18.9,3.8,-24.7,5.73,1.93,-14.6,25.1
2015-11-07 00:29:00,0.0,1.93668,0.00035,403.894,0.035,0.1020,0.0016,140.000,45.000,31659.94828,1.93866,404.390,33.009,45.070,45.001,0.00,0.09,-272.75,-272.81,-5,520,-952,18.7,3.8,-24.7,18.9,3.9,-24.5,5.73,1.90,-14.6,25.1
2015-11-07 00:30:00,0.0,1.93648,0.00031,403.859,0.028,0.1038,0.0019,140.001,45.000,31659.75075,1.93848,404.365,33.005,45.070,45.000,0.00,0.09,-272.76,-272.80,-5,520,-952,18.7,3.9,-24.5,18.9,3.9,-24.3,5.73,2.00,-14.6,25.1
2015-11-07 00:31:00,0.0,1.93635,0.00029,403.859,0.034,0.1066,0.0019,139.997,45.000,31659.51225,1.93839,404.377,33.027,45.070,45.000,0.00,0.09,-272.75,-272.81,-4,520,-952,18.7,4.0,-24.4,18.9,4.0,-24.1,5.73,2.13,-14.6,25.1
2015-11-07 00:32:00,0.0,1.93612,0.00039,403.857,0.043,0.1075,0.0016,139.999,45.000,31660.44594,1.93815,404.379,33.050,45.070,45.000,0.00,0.09,-272.75,-272.81,-4,520,-952,18.7,4.0,-24.2,18.9,4.0,-24.0,5.73,2.14,-14.6,25.1
2015-11-07 00:33:00,0.0,1.93634,0.00037,403.893,0.025,0.1074,0.0019,139.997,45.000,31660.43894,1.93839,404.415,33.026,45.069,45.000,0.00,0.09,-272.75,-272.80,-4,520,-952,18.7,4.0,-24.2,18.9,4.1,-23.9,5.73,2.03,-14.6,25.1
2015-11-07 00:34:00,0.0,1.93632,0.00034,403.894,0.032,0.1077,0.0016,140.000,45.000,31661.60762,1.93836,404.417,33.044,45.069,45.000,0.00,0.09,-272.74,-272.81,-5,520,-952,18.7,4.0,-24.2,18.9,4.1,-23.9,5.73,1.91,-14.6,25.2
2015-11-07 00:35:00,0.0,1.93650,0.00035,403.911,0.036,0.1082,0.0019,139.998,45.000,31660.57633,1.93855,404.437,33.036,45.069,45.000,0.00,0.09,-272.75,-272.81,-5,520,-952,18.7,4.0,-24.2,18.9,4.1,-23.9,5.73,1.91,-14.6,25.1
2015-11-07 00:36:00,0.0,1.93671,0.00027,403.958,0.040,0.1069,0.0018,139.999,45.000,31660.15750,1.93875,404.479,33.059,45.069,45.000,0.00,0.09,-272.74,-272.80,-5,520,-952,18.7,4.0,-24.2,18.9,4.1,-23.9,5.73,2.03,-14.6,25.1
2015-11-07 00:37:00,0.0,1.93826,0.00114,404.004,0.036,0.1066,0.0016,139.999,45.000,31660.45391,1.94018,404.520,33.064,45.069,45.000,0.00,0.09,-272.75,-272.80,-5,520,-952,18.7,4.0,-24.3,18.9,4.0,-24.0,5.73,2.13,-14.6,25.1
2015-11-07 00:38:00,0.0,1.93883,0.00070,404.034,0.035,0.1042,0.0017,140.000,45.000,31658.20640,1.94090,404.542,33.063,45.069,45.000,0.00,0.09,-272.75,-272.81,-5,520,-952,18.7,3.9,-24.5,18.9,4.0,-24.1,5.73,2.13,-14.6,25.1
2015-11-07 00:39:00,0.0,1.93877,0.00066,404.042,0.036,0.1023,0.0017,140.001,45.000,31659.11614,1.94067,404.540,33.062,45.069,45.000,0.00,0.09,-272.75,-272.81,-5,520,-952,18.7,3.8,-24.7,18.9,3.9,-24.3,5.73,2.03,-14.6,25.1
2015-11-07 00:40:00,0.0,1.93871,0.00050,404.029,0.043,0.1010,0.0019,140.000,45.000,31660.30964,1.94068,404.521,33.060,45.069,45.000,0.00,0.09,-272.75,-272.81,-4,520,-952,18.7,3.8,-24.9,18.9,3.8,-24.5,5.73,1.91,-14.6,25.1
2015-11-07 00:41:00,0.0,1.93806,0.00039,404.072,0.039,0.1002,0.0016,139.998,45.000,31659.33071,1.93999,404.559,33.044,45.069,45.000,0.00,0.09,-272.75,-272.80,-4,520,-952,18.7,3.8,-24.9,18.9,3.8,-24.5,5.73,1.92,-14.6,25.1
2015-11-07 00:42:00,0.0,1.93839,0.00054,404.175,0.059,0.0999,0.0014,140.001,45.000,31659.47801,1.94029,404.657,33.017,45.070,45.000,0.00,0.09,-272.75,-272.80,-4,520,-952,18.7,3.7,-24.9,18.9,3.8,-24.6,5.73,2.03,-14.6,25.1
2015-11-07 00:43:00,0.0,1.93884,0.00056,404.208,0.060,0.0998,0.0021,140.000,45.000,31659.20915,1.94072,404.694,33.002,45.070,45.000,0.00,0.09,-272.75,-272.80,-4,520,-952,18.7,3.7,-25.0,18.9,3.8,-24.6,5.73,2.14,-14.6,25.1
2015-11-07 00:44:00,0.0,1.93914,0.00028,404.265,0.027,0.0992,0.0017,140.000,45.000,31659.83157,1.94103,404.748,32.963,45.070,45.000,0.00,0.09,-272.75,-272.81,-5,520,-952,18.7,3.7,-25.1,18.9,3.8,-24.7,5.73,2.14,-14.6,25.1
2015-11-07 00:45:00,0.0,1.93933,0.00047,404.279,0.036,0.0969,0.0014,139.997,45.000,31659.06868,1.94115,404.751,32.971,45.070,45.001,0.00,0.09,-272.76,-272.81,-5,520,-952,18.7,3.6,-25.3,18.9,3.7,-24.8,5.73,2.01,-14.6,25.1
2015-11-07 00:46:00,0.0,1.93939,0.00045,404.284,0.045,0.0968,0.0018,140.000,45.000,31660.37426,1.94127,404.755,32.986,45.070,45.001,0.00,0.09,-272.75,-272.81,-5,520,-952,18.7,3.6,-25.3,18.9,3.7,-24.9,5.73,1.91,-14.6,25.1
2015-11-07 00:47:00,0.0,1.93942,0.00044,404.373,0.056,0.0954,0.0016,140.000,45.000,31660.21244,1.94122,404.835,32.993,45.070,45.000,0.00,0.09,-272.75,-272.80,-5,520,-952,18.7,3.6,-25.4,18.9,3.7,-25.0,5.73,1.92,-14.6,25.1
2015-11-07 00:48:00,0.0,1.93942,0.00042,404.421,0.110,0.0945,0.0012,140.000,45.000,31660.83776,1.94125,404.886,32.971,45.070,45.000,0.00,0.09,-272.76,-272.80,-4,520,-952,18.7,3.6,-25.4,18.9,3.7,-25.0,5.73,2.05,-14.6,25.1
2015-11-07 00:49:00,0.0,1.93936,0.00046,404.270,0.053,0.0941,0.0016,139.999,45.000,31660.04288,1.94114,404.727,32.986,45.070,45.000,0.00,0.09,-272.75,-272.81,-4,520,-952,18.7,3.6,-25.5,18.9,3.6,-25.1,5.73,2.14,-14.6,25.1
2015-11-07 00:50:00,0.0,1.93978,0.00062,404.270,0.060,0.0935,0.0018,139.999,45.000,31661.09930,1.94155,404.726,33.001,45.070,45.000,0.00,0.09,-272.74,-272.81,-4,520,-952,18.7,3.6,-25.6,18.9,3.6,-25.2,5.73,2.12,-14.6,25.1
2015-11-07 00:51:00,0.0,1.93893,0.00039,404.187,0.052,0.0929,0.0017,139.999,45.000,31660.13300,1.94075,404.640,33.006,45.070,45.000,0.00,0.09,-272.74,-272.81,-4,520,-952,18.7,3.5,-25.6,18.9,3.6,-25.2,5.73,2.00,-14.6,25.1
2015-11-07 00:52:00,0.0,1.93797,0.00064,404.100,0.062,0.0925,0.0015,139.999,45.000,31659.94060,1.93978,404.553,33.000,45.070,45.000,0.00,0.09,-272.74,-272.81,-4,520,-952,18.7,3.5,-25.6,18.9,3.6,-25.3,5.73,1.89,-14.6,25.1
2015-11-07 00:53:00,0.0,1.93757,0.00034,404.034,0.035,0.0936,0.0018,139.999,45.000,31658.52285,1.93934,404.489,32.999,45.069,45.000,0.00,0.09,-272.74,-272.80,-5,520,-952,18.7,3.5,-25.6,18.9,3.6,-25.3,5.73,1.93,-14.6,25.1
2015-11-07 00:54:00,0.0,1.93803,0.00039,404.053,0.044,0.0941,0.0038,139.996,45.000,31655.48349,1.93980,404.508,33.000,45.069,45.000,0.00,0.09,-272.75,-272.80,-5,520,-952,18.7,3.5,-25.6,18.9,3.6,-25.3,5.73,2.06,-14.6,25.1
2015-11-07 00:55:00,0.0,1.93766,0.00075,404.036,0.099,0.0936,0.0016,139.999,45.000,31655.66104,1.93951,404.496,33.005,45.069,45.000,0.00,0.09,-272.74,-272.81,-5,520,-952,18.7,3.5,-25.6,18.9,3.6,-25.3,5.73,2.15,-14.7,25.1
2015-11-07 00:56:00,0.0,1.93736,0.00034,403.965,0.024,0.0943,0.0012,139.998,45.000,31657.28164,1.93910,404.422,33.000,45.069,45.000,0.00,0.09,-272.75,-272.81,-5,520,-952,18.7,3.5,-25.6,18.9,3.6,-25.2,5.73,2.10,-14.6,25.1
2015-11-07 00:57:00,0.0,1.93770,0.00046,404.046,0.037,0.0943,0.0013,140.001,45.000,31657.42487,1.93950,404.504,33.000,45.070,45.000,0.00,0.09,-272.74,-272.81,-4,520,-952,18.7,3.6,-25.5,18.9,3.6,-25.2,5.73,1.97,-14.6,25.1
2015-11-07 00:58:00,0.0,1.93729,0.00057,404.008,0.050,0.0946,0.0019,139.998,45.000,31656.59014,1.93918,404.470,33.001,45.070,45.000,0.00,0.09,-272.75,-272.81,-4,520,-952,18.7,3.6,-25.4,18.9,3.6,-25.1,5.73,1.90,-14.6,25.1
2015-11-07 00:59:00,0.0,1.93671,0.00040,403.982,0.037,0.0954,0.0016,139.999,45.000,31657.20351,1.93850,404.445,33.000,45.070,45.000,0.00,0.09,-272.76,-272.80,-4,520,-952,18.7,3.6,-25.4,18.9,3.7,-25.1,5.73,1.95,-14.6,25.1
2015-11-07 01:00:00,0.0,1.93713,0.00032,404.025,0.037,0.0966,0.0016,140.001,45.000,31657.16393,1.93897,404.494,33.000,45.070,45.000,0.00,0.09,-272.75,-272.80,-4,520,-952,18.7,3.6,-25.3,18.9,3.7,-25.0,5.73,2.09,-14.6,25.1
2015-11-07 01:01:00,0.0,1.93706,0.00024,404.032,0.034,0.0982,0.0016,140.000,45.000,31655.88514,1.93893,404.508,32.987,45.070,45.000,0.00,0.09,-272.76,-272.79,-5,520,-952,18.7,3.7,-25.2,18.9,3.7,-24.9,5.73,2.15,-14.6,25.1
2015-11-07 01:02:00,0.0,1.93734,0.00041,404.046,0.023,0.0990,0.0017,140.000,45.000,31655.49486,1.93922,404.527,32.999,45.070,45.000,0.00,0.09,-272.76,-272.81,-5,520,-952,18.7,3.7,-25.1,18.9,3.7,-24.8,5.73,2.09,-14.6,25.1
2015-11-07 01:03:00,0.0,1.93746,0.00033,404.061,0.034,0.0988,0.0017,139.998,45.000,31655.27910,1.93935,404.543,33.001,45.070,45.000,0.00,0.09,-272.75,-272.81,-5,520,-952,18.7,3.7,-25.0,18.9,3.8,-24.7,5.73,1.96,-14.6,25.1
2015-11-07 01:04:00,0.0,1.93700,0.00039,404.038,0.042,0.0994,0.0020,140.002,45.000,31656.60119,1.93890,404.522,32.999,45.070,45.000,0.00,0.09,-272.74,-272.80,-5,520,-952,18.7,3.8,-25.0,18.9,3.8,-24.6,5.73,1.89,-14.6,25.1
2015-11-07 01:05:00,0.0,1.93720,0.00036,404.032,0.033,0.1001,0.0019,140.000,45.000,31656.09523,1.93912,404.518,33.000,45.070,45.000,0.00,0.09,-272.75,-272.81,-5,520,-952,18.7,3.8,-24.9,18.9,3.8,-24.6,5.73,1.98,-14.7,25.1
2015-11-07 01:06:00,0.0,1.93699,0.00033,404.001,0.034,0.1009,0.0015,140.000,45.000,31658.45418,1.93893,404.492,33.000,45.070,45.000,0.00,0.09,-272.75,-272.81,-5,520,-952,18.7,3.8,-24.9,18.9,3.8,-24.6,5.73,2.11,-14.7,25.1
2015-11-07 01:07:00,0.0,1.93697,0.00039,404.023,0.037,0.1008,0.0021,139.997,45.000,31658.35037,1.93887,404.512,33.004,45.069,45.000,0.00,0.09,-272.75,-272.81,-4,520,-952,18.7,3.8,-24.9,18.9,3.8,-24.6,5.73,2.15,-14.6,25.1
2015-11-07 01:08:00,0.0,1.93716,0.00032,404.030,0.027,0.0996,0.0015,139.998,45.000,31657.71288,1.93908,404.514,33.006,45.070,45.000,0.00,0.09,-272.75,-272.81,-4,520,-952,18.7,3.7,-25.0,18.9,3.8,-24.6,5.73,2.07,-14.6,25.1
2015-11-07 01:09:00,0.0,1.93719,0.00039,404.051,0.037,0.0992,0.0015,140.000,45.000,31657.37079,1.93908,404.535,33.007,45.069,45.000,0.00,0.09,-272.75,-272.82,-4,520,-952,18.7,3.7,-25.0,18.9,3.8,-24.6,5.73,1.94,-14.6,25.1
2015-11-07 01:10:00,0.0,1.93679,0.00024,404.043,0.038,0.0998,0.0020,140.002,45.000,31659.23798,1.93872,404.527,33.017,45.070,45.000,0.00,0.09,-272.75,-272.80,-5,520,-952,18.7,3.8,-24.9,18.9,3.8,-24.6,5.73,1.90,-14.7,25.0
2015-11-07 01:11:00,0.0,1.93668,0.00032,404.030,0.021,0.1011,0.0012,140.002,45.000,31658.96938,1.93861,404.522,33.020,45.069,45.000,0.00,0.09,-272.74,-272.80,-5,520,-952,18.7,3.8,-24.9,18.9,3.8,-24.5,5.73,1.98,-14.6,25.0
2015-11-07 01:12:00,0.0,1.93702,0.00040,404.121,0.039,0.1009,0.0018,140.001,45.000,31658.58119,1.93892,404.609,33.005,45.070,45.000,0.00,0.09,-272.77,-272.81,-5,520,-952,18.7,3.8,-24.9,18.9,3.8,-24.5,5.73,2.10,-14.6,25.1
2015-11-07 01:13:00,0.0,1.93715,0.00042,404.153,0.031,0.1012,0.0013,139.997,45.000,31656.51375,1.93911,404.646,33.004,45.070,45.000,0.00,0.09,-272.75,-272.81,-5,520,-952,18.7,3.8,-24.8,18.9,3.8,-24.5,5.73,2.15,-14.6,25.1
2015-11-07 01:14:00,0.0,1.93732,0.00042,404.149,0.033,0.1015,0.0014,140.000,45.000,31658.58536,1.93923,404.642,33.000,45.070,45.000,0.00,0.09,-272.75,-272.80,-5,520,-952,18.7,3.8,-24.9,18.9,3.8,-24.5,5.73,2.07,-14.6,25.1
2015-11-07 01:15:00,0.0,1.93738,0.00036,404.198,0.029,0.1004,0.0015,139.999,45.000,31659.24342,1.93930,404.687,33.000,45.070,45.000,0.00,0.09,-272.75,-272.81,-5,520,-952,18.7,3.7,-25.0,18.9,3.8,-24.6,5.73,1.95,-14.6,25.1
2015-11-07 01:16:00,0.0,1.93796,0.00052,404.219,0.029,0.0983,0.0022,139.999,45.000,31658.64549,1.93979,404.697,32.999,45.070,45.000,0.00,0.09,-272.75,-272.81,-4,520,-952,18.7,3.7,-25.0,18.9,3.8,-24.7,5.73,1.89,-14.5,25.1
2015-11-07 01:17:00,0.0,1.93786,0.00038,404.248,0.026,0.0995,0.0010,139.999,45.000,31659.80484,1.93977,404.732,33.000,45.070,45.000,0.00,0.09,-272.74,-272.80,-4,520,-952,18.7,3.7,-25.0,18.9,3.8,-24.7,5.73,1.99,-14.5,25.1
2015-11-07 01:18:00,0.0,1.93815,0.00027,404.273,0.036,0.0990,0.0019,140.000,45.000,31661.28178,1.94005,404.754,32.999,45.070,45.000,0.00,0.09,-272.75,-272.80,-4,520,-952,18.7,3.7,-25.0,18.9,3.8,-24.7,5.73,2.12,-14.5,25.1
2015-11-07 01:19:00,0.0,1.93846,0.00028,404.295,0.040,0.0991,0.0015,140.001,45.000,31660.95340,1.94035,404.779,33.002,45.070,45.000,0.00,0.09,-272.75,-272.81,-5,520,-952,18.7,3.7,-25.0,18.9,3.8,-24.7,5.73,2.15,-14.5,25.1
2015-11-07 01:20:00,0.0,1.93821,0.00037,404.294,0.041,0.0989,0.0018,139.998,45.000,31658.41810,1.94012,404.775,33.000,45.070,45.000,0.00,0.09,-272.75,-272.80,-5,520,-952,18.7,3.7,-25.0,18.9,3.8,-24.7,5.73,2.04,-14.5,25.1
2015-11-07 01:21:00,0.0,1.93810,0.00046,404.312,0.024,0.0993,0.0016,140.000,45.000,31658.18339,1.93997,404.795,32.995,45.070,45.000,0.00,0.09,-272.74,-272.81,-5,520,-952,18.7,3.7,-25.0,18.9,3.8,-24.7,5.73,1.91,-14.5,25.1
2015-11-07 01:22:00,0.0,1.93853,0.00029,404.325,0.030,0.0987,0.0018,139.999,45.000,31656.28567,1.94043,404.805,32.993,45.070,45.000,0.00,0.09,-272.75,-272.81,-5,520,-952,18.7,3.7,-25.1,18.9,3.8,-24.7,5.73,1.91,-14.5,25.1
2015-11-07 01:23:00,0.0,1.93797,0.00034,404.346,0.036,0.0997,0.0018,140.001,45.000,31659.36356,1.93988,404.830,32.994,45.070,45.000,0.00,0.09,-272.75,-272.81,-5,520,-952,18.7,3.7,-25.1,18.9,3.8,-24.7,5.73,2.03,-14.5,25.1
2015-11-07 01:24:00,0.0,1.93814,0.00029,404.354,0.042,0.0995,0.0018,139.999,45.000,31657.93223,1.94003,404.839,32.999,45.070,45.000,0.00,0.09,-272.76,-272.80,-4,520,-952,18.7,3.7,-25.0,18.9,3.8,-24.7,5.73,2.14,-14.5,25.1
2015-11-07 01:25:00,0.0,1.93809,0.00034,404.287,0.041,0.0998,0.0018,139.997,45.000,31658.29360,1.94001,404.774,33.012,45.070,45.000,0.00,0.09,-272.75,-272.81,-4,520,-952,18.7,3.7,-25.0,18.9,3.8,-24.6,5.73,2.13,-14.4,25.1
2015-11-07 01:26:00,0.0,1.93800,0.00037,404.300,0.054,0.1001,0.0016,140.003,45.000,31660.83960,1.93992,404.789,33.004,45.070,45.000,0.00,0.09,-272.75,-272.81,-4,520,-952,18.7,3.8,-24.9,18.9,3.8,-24.6,5.73,2.01,-14.4,25.1
2015-11-07 01:27:00,0.0,1.93794,0.00055,404.233,0.054,0.0995,0.0019,140.002,45.000,31660.66169,1.93982,404.717,33.001,45.070,45.000,0.00,0.09,-272.75,-272.80,-4,520,-952,18.7,3.8,-24.9,18.9,3.8,-24.6,5.73,1.90,-14.3,25.1
2015-11-07 01:28:00,0.0,1.93822,0.00038,404.249,0.038,0.0997,0.0019,140.000,45.000,31657.69551,1.94012,404.734,33.003,45.070,45.000,0.00,0.09,-272.75,-272.81,-5,520,-952,18.7,3.8,-24.9,18.9,3.8,-24.6,5.73,1.93,-14.3,25.1
2015-11-07 01:29:00,0.0,1.93863,0.00035,404.245,0.038,0.0991,0.0019,139.999,45.000,31658.88181,1.94051,404.729,33.000,45.070,45.000,0.00,0.09,-272.75,-272.81,-5,520,-952,18.7,3.7,-25.0,18.9,3.8,-24.6,5.73,2.07,-14.3,25.1
2015-11-07 01:30:00,0.0,1.93904,0.00047,404.253,0.046,0.0988,0.0015,140.002,45.000,31660.71275,1.94090,404.731,33.000,45.070,45.000,0.00,0.09,-272.74,-272.80,-5,520,-952,18.7,3.7,-25.0,18.9,3.8,-24.7,5.73,2.15,-14.3,25.1
2015-11-07 01:31:00,0.0,1.93941,0.00046,404.267,0.029,0.0987,0.0016,139.997,45.000,31659.31535,1.94133,404.748,33.015,45.070,45.000,0.00,0.09,-272.73,-272.80,-5,520,-952,18.7,3.7,-25.0,18.9,3.8,-24.7,5.73,2.09,-14.3,25.1
2015-11-07 01:32:00,0.0,1.93882,0.00045,404.280,0.039,0.0999,0.0012,139.999,45.000,31661.35860,1.94071,404.765,33.022,45.070,45.000,0.00,0.09,-272.74,-272.81,-5,520,-952,18.7,3.7,-25.0,18.9,3.8,-24.7,5.73,1.95,-14.2,25.1
2015-11-07 01:33:00,0.0,1.93882,0.00043,404.305,0.031,0.1000,0.0018,139.999,44.998,31658.15488,1.94073,404.792,33.005,45.069,45.000,0.00,0.09,-272.75,-272.80,-4,520,-952,18.7,3.7,-25.0,18.9,3.8,-24.6,5.73,1.89,-14.3,25.1
2015-11-07 01:34:00,0.0,1.93894,0.00056,404.286,0.045,0.1003,0.0019,140.000,45.000,31659.32975,1.94088,404.776,33.001,45.069,45.000,0.00,0.09,-272.75,-272.81,-4,520,-952,18.7,3.8,-24.9,18.9,3.8,-24.6,5.73,1.98,-14.2,25.1
2015-11-07 01:35:00,0.0,1.93918,0.00050,404.312,0.040,0.1008,0.0019,139.998,45.002,31660.28147,1.94111,404.802,33.002,45.069,45.000,0.00,0.09,-272.75,-272.81,-4,520,-952,18.7,3.8,-24.9,18.9,3.8,-24.5,5.73,2.11,-14.2,25.1
2015-11-07 01:36:00,0.0,1.93913,0.00041,404.319,0.047,0.1011,0.0018,139.997,45.003,31664.22718,1.94103,404.809,33.000,45.070,45.000,0.00,0.29,-271.21,-272.51,-5,520,-952,18.7,3.8,-24.8,18.9,3.8,-24.5,5.43,2.30,-19.6,25.1
2015-11-07 01:37:00,0.0,1.93927,0.00048,404.362,0.024,0.1012,0.0020,140.000,45.003,31666.16774,1.94123,404.853,33.000,45.070,45.000,0.00,0.09,-272.75,-272.80,-5,520,-952,18.7,3.8,-24.8,18.9,3.8,-24.5,5.73,2.06,-14.2,25.1
2015-11-07 01:38:00,0.0,1.93924,0.00041,404.395,0.033,0.1018,0.0017,139.999,45.002,31666.73876,1.94115,404.891,32.999,45.070,45.000,0.00,0.09,-272.74,-272.80,-5,520,-952,18.7,3.8,-24.7,18.9,3.9,-24.4,5.73,1.93,-14.2,25.1
2015-11-07 01:39:00,0.0,1.93854,0.00075,404.271,0.076,0.1011,0.0015,139.998,45.001,31667.98548,1.94050,404.767,33.000,45.070,45.000,0.00,0.09,-272.75,-272.81,-5,520,-952,18.7,3.8,-24.8,18.9,3.9,-24.5,5.73,1.90,-14.2,25.1
2015-11-07 01:40:00,0.0,1.93788,0.00039,404.170,0.052,0.1017,0.0013,139.999,45.000,31668.71479,1.93987,404.664,33.037,45.070,45.000,0.00,0.09,-272.76,-272.80,-5,520,-952,18.7,3.8,-24.7,18.9,3.9,-24.4,5.73,2.01,-14.2,25.1
2015-11-07 01:41:00,0.0,1.93811,0.00030,404.187,0.045,0.1022,0.0019,139.999,45.000,31667.33345,1.94003,404.683,33.055,45.070,45.000,0.00,0.09,-272.76,-272.80,-5,520,-952,18.7,3.8,-24.7,18.9,3.9,-24.4,5.73,2.14,-14.2,25.1
2015-11-07 01:42:00,0.0,1.93888,0.00034,404.284,0.036,0.1013,0.0014,139.998,44.999,31667.04543,1.94080,404.776,33.046,45.069,45.000,0.00,0.09,-272.76,-272.81,-4,520,-952,18.7,3.8,-24.8,18.9,3.9,-24.5,5.73,2.13,-14.2,25.1
2015-11-07 01:43:00,0.0,1.93948,0.00045,404.345,0.039,0.1021,0.0015,140.000,44.999,31666.64640,1.94141,404.842,33.045,45.069,45.000,0.00,0.09,-272.75,-272.81,-4,520,-952,18.7,3.8,-24.8,18.9,3.8,-24.5,5.73,2.00,-14.2,25.1
2015-11-07 01:44:00,0.0,1.93894,0.00068,404.262,0.075,0.1023,0.0027,140.000,45.000,31665.89238,1.94095,404.765,33.043,45.069,45.000,0.00,0.09,-272.74,-272.80,-5,520,-952,18.7,3.8,-24.8,18.9,3.8,-24.5,5.73,1.90,-14.2,25.1
2015-11-07 01:45:00,0.0,1.93893,0.00043,404.200,0.039,0.1016,0.0017,140.001,45.000,31665.66263,1.94083,404.693,33.048,45.069,45.000,0.00,0.09,-272.75,-272.81,-5,520,-952,18.7,3.8,-24.7,18.9,3.9,-24.4,5.73,1.93,-14.2,25.1